Stations météo

Publicité
Paris-Montsouris, France (7156): Température de l'air & dewpoint: 14.08.2019 13:00:00 - 20.08.2019 13:00:00 (CEST)Paris-Montsouris, France (7156): Température de l'air 5cm: 14.08.2019 13:00:00 - 20.08.2019 13:00:00 (CEST)Paris-Montsouris, France (7156): Température de l'air -20cm & Température de l'air -100cm: 14.08.2019 13:00:00 - 20.08.2019 13:00:00 (CEST)Paris-Montsouris, France (7156): Vitesse du vent & gusts: 14.08.2019 13:00:00 - 20.08.2019 13:00:00 (CEST)Paris-Montsouris, France (7156): Direction du vent: 14.08.2019 13:00:00 - 20.08.2019 13:00:00 (CEST)Paris-Montsouris, France (7156): reduced air pressure: 14.08.2019 13:00:00 - 20.08.2019 13:00:00 (CEST)Paris-Montsouris, France (7156): visibility: 14.08.2019 13:00:00 - 20.08.2019 13:00:00 (CEST)Paris-Montsouris, France (7156): Ensoleillement: 14.08.2019 13:00:00 - 20.08.2019 13:00:00 (CEST)Paris-Montsouris, France (7156): Quantités de précipitations: 14.08.2019 13:00:00 - 20.08.2019 13:00:00 (CEST)
Date & Time tt [°C] td [°C] tt 5cm [°C] tt -20cm [°C] tt -100cm [°C] ff [km/h] ff [knt] fx [km/h] fx [knt] dd ppp [hPa] vv [km] sd [min] rr [mm]
20.08.2019 13:00:00 20,9 11,5 22,0 19,8 18,9 6 3 28 15 W 1024,3 20 46 0,0
20.08.2019 12:00:00 19,8 10,8 23,4 19,7 18,9 8 4 19 10 NW 1024,4 20 56 0,0
20.08.2019 11:00:00 19,5 12,0 23,5 19,7 18,9 4 2 19 11 WNW 1024,2 20 60 0,0
20.08.2019 10:00:00 17,8 12,0 16,4 19,7 18,9 9 5 15 8 N 1023,7 20 40 0,0
20.08.2019 09:00:00 16,5 11,6 16,1 19,7 18,9 6 4 13 7 NNW 1023,8 20 12 0,0
20.08.2019 08:00:00 16,3 11,0 14,5 19,8 18,9 5 3 15 8 NNW 1023,6 20 4 0,0
20.08.2019 07:00:00 16,3 10,6 14,1 19,9 18,9 6 4 12 6 WNW 1022,9 20 0 0,0
20.08.2019 06:00:00 16,1 11,0 14,0 20,0 18,9 4 2 9 5 NW 1022,1 20 0 0,0
20.08.2019 05:00:00 16,3 10,6 12,6 20,1 18,9 4 2 10 5 N 1021,9 20 0 0,0
20.08.2019 04:00:00 15,8 10,1 12,1 20,2 18,9 5 3 15 8 NNE 1021,6 20 0 0,0
20.08.2019 03:00:00 17,0 10,1 12,3 20,4 18,9 5 3 21 11 NNW 1021,8 20 0 0,0
20.08.2019 02:00:00 16,5 9,7 12,5 20,5 18,9 8 4 16 9 N 1021,9 20 0 0,0
20.08.2019 01:00:00 17,4 10,0 12,6 20,6 19,0 7 4 17 9 NNW 1022,0 20 0 0,0
20.08.2019 00:00:00 18,0 11,1 13,3 20,7 18,9 7 4 14 8 NW 1021,7 20 0 0,0
19.08.2019 23:00:00 17,7 10,8 12,9 20,8 18,9 6 3 13 7 N 1021,2 20 0 0,0
19.08.2019 22:00:00 18,8 9,3 14,0 20,9 18,9 7 4 15 8 W 1020,6 20 0 0,0
19.08.2019 21:00:00 20,0 8,6 16,0 20,9 18,9 8 4 25 13 W 1019,9 20 34 0,0
19.08.2019 20:00:00 21,7 8,2 20,5 20,9 19,0 9 5 27 14 W 1019,5 20 60 0,0
19.08.2019 19:00:00 22,0 9,8 21,9 20,8 18,9 13 7 28 15 WSW 1019,3 20 26 0,0
19.08.2019 18:00:00 22,7 9,5 24,4 20,7 18,9 13 7 45 24 W 1019,2 20 57 0,0
19.08.2019 17:00:00 22,2 9,4 22,2 20,6 19,0 14 7 30 16 W 1019,1 20 24 0,0
19.08.2019 16:00:00 22,0 8,8 22,9 20,4 19,0 8 5 35 19 W 1019,2 20 41 0,0
19.08.2019 15:00:00 22,4 10,2 23,0 20,1 18,9 13 7 36 19 W 1019,2 20 54 0,0
19.08.2019 14:00:00 21,8 9,3 22,7 19,9 18,9 14 7 36 20 WSW 1018,9 20 48 0,0
19.08.2019 13:00:00 20,6 9,2 20,6 19,8 18,9 13 7 35 19 W 1018,9 20 47 0,0
19.08.2019 12:00:00 19,5 9,4 20,6 19,7 19,0 15 8 32 17 W 1018,9 20 49 0,0
19.08.2019 11:00:00 19,4 11,4 24,7 19,6 18,9 10 5 26 14 WSW 1018,6 20 60 0,0
19.08.2019 10:00:00 18,2 12,4 20,9 19,7 19,0 8 5 22 12 WSW 1018,4 20 60 0,0
19.08.2019 09:00:00 16,3 11,7 14,3 19,8 18,9 9 5 23 12 W 1018,0 20 56 0,0
19.08.2019 08:00:00 15,2 11,2 11,8 19,9 18,9 6 4 16 9 WNW 1017,8 20 37 0,0
19.08.2019 07:00:00 15,0 11,0 12,3 20,0 18,9 4 2 13 7 W 1017,4 20 0 0,0
19.08.2019 06:00:00 15,5 11,1 13,3 20,1 19,0 4 2 19 10 W 1016,9 20 0 0,0
19.08.2019 05:00:00 15,8 11,0 13,9 20,1 18,9 7 4 21 11 W 1016,5 20 0 0,0
19.08.2019 04:00:00 16,4 10,7 14,6 20,3 19,0 8 4 17 9 W 1016,1 20 0 0,0
19.08.2019 03:00:00 16,4 10,9 12,8 20,4 19,0 7 4 17 9 W 1015,8 20 0 0,0
19.08.2019 02:00:00 16,0 11,4 12,7 20,5 19,0 5 3 9 5 W 1015,3 20 0 0,0
19.08.2019 01:00:00 16,3 11,2 12,7 20,6 19,0 5 3 9 5 WNW 1015,0 20 0 0,0
19.08.2019 00:00:00 17,8 10,9 13,8 20,7 19,0 5 3 16 8 WNW 1014,1 20 0 0,0
18.08.2019 23:00:00 18,5 10,3 14,8 20,8 18,9 6 3 14 8 WNW 1013,2 20 0 0,0
18.08.2019 22:00:00 19,8 10,8 16,9 20,9 19,0 6 3 24 13 NW 1012,3 20 0 0,0
18.08.2019 21:00:00 20,8 12,0 19,4 20,8 19,0 8 4 22 12 NNW 1011,8 20 17 0,0
18.08.2019 20:00:00 21,3 14,2 20,2 20,8 19,0 9 5 27 15 WSW 1011,2 20 13 0,0
18.08.2019 19:00:00 22,1 14,2 20,9 20,7 19,0 8 4 25 14 W 1010,9 20 10 0,0
18.08.2019 18:00:00 22,7 14,8 24,1 20,5 18,9 8 5 32 17 WSW 1010,7 20 47 0,2
18.08.2019 17:00:00 21,7 14,1 23,8 20,5 19,0 10 6 27 15 WSW 1010,8 20 48 0,0
18.08.2019 16:00:00 20,5 14,2 22,2 20,4 19,0 9 5 26 14 W 1010,8 20 1 0,0
18.08.2019 15:00:00 19,4 14,9 19,5 20,4 19,0 11 6 35 19 W 1010,5 20 0 0,0
18.08.2019 14:00:00 18,9 15,2 19,4 20,3 19,0 12 6 34 18 WNW 1009,5 20 0 0,0
18.08.2019 13:00:00 18,3 15,9 17,7 20,3 19,0 9 5 29 16 WNW 1008,6 20 0 0,0
18.08.2019 12:00:00 18,4 16,9 17,9 20,3 19,0 12 6 44 24 WNW 1007,3 20 0 1,2
18.08.2019 11:00:00 20,6 18,4 19,3 20,3 19,0 19 11 47 25 SW 1006,2 20 0 0,0
18.08.2019 10:00:00 19,7 18,2 19,1 20,3 19,0 18 10 47 25 SW 1005,1 20 0 0,2
18.08.2019 09:00:00 19,2 17,7 19,0 20,3 19,0 18 10 46 25 SW 1004,7 20 0 0,0
18.08.2019 08:00:00 19,1 18,3 18,7 20,4 19,0 17 9 37 20 SSW 1004,5 20 0 0,0
18.08.2019 07:00:00 19,0 18,3 18,6 20,4 18,9 14 8 36 19 SSW 1004,7 20 0 0,0
18.08.2019 06:00:00 18,9 18,2 18,5 20,4 19,0 14 7 39 21 SW 1005,5 20 0 0,2
18.08.2019 05:00:00 18,9 18,4 18,5 20,4 19,0 8 4 19 11 SSW 1006,6 12 0 1,8
18.08.2019 04:00:00 18,9 18,4 18,4 20,5 19,0 8 4 18 10 SSW 1007,3 11 0 0,0
18.08.2019 03:00:00 18,8 18,3 17,8 20,5 19,0 6 4 14 8 S 1008,1 9 0 0,0
18.08.2019 02:00:00 18,3 17,7 17,4 20,5 19,0 6 3 11 6 SSW 1008,7 7 0 0,0
18.08.2019 01:00:00 18,0 17,2 17,2 20,6 19,0 6 4 13 7 S 1009,3 7 0 0,2
18.08.2019 00:00:00 18,0 17,2 17,1 20,6 19,0 5 3 12 7 SSW 1009,5 8 0 0,2
17.08.2019 23:00:00 18,1 17,1 17,5 20,6 19,0 5 3 16 9 W 1009,8 20 0 0,6
17.08.2019 22:00:00 18,7 17,7 18,1 20,7 19,0 8 4 19 10 W 1010,1 12 0 1,6
17.08.2019 21:00:00 19,0 18,0 18,5 20,6 19,0 6 3 28 15 WNW 1009,1 6 0 2,4
17.08.2019 20:00:00 20,5 19,7 20,1 20,6 19,0 7 4 18 10 SSW 1008,5 20 0 0,2
17.08.2019 19:00:00 20,5 19,5 20,2 20,5 19,0 7 4 20 11 S 1008,9 20 0 0,0
17.08.2019 18:00:00 20,2 19,2 19,7 20,5 19,0 9 5 27 14 SSW 1009,3 15 0 0,2
17.08.2019 17:00:00 19,9 18,9 19,6 20,4 19,0 13 7 29 16 SW 1009,7 20 0 0,2
17.08.2019 16:00:00 19,5 18,7 19,2 20,4 19,0 15 8 34 19 SSW 1009,9 3,7 0 1,7
17.08.2019 15:00:00 19,4 18,6 19,0 20,4 19,0 12 7 31 17 SSW 1010,1 6 0 0,8
17.08.2019 14:00:00 18,9 17,9 18,5 20,4 19,0 11 6 32 17 SSW 1010,3 7 0 2,4
17.08.2019 13:00:00 19,0 17,8 18,5 20,4 19,0 13 7 29 16 SSW 1010,5 16 0 1,6
17.08.2019 12:00:00 18,8 17,3 18,2 20,3 19,0 14 7 31 17 SSW 1010,7 15 0 0,6
17.08.2019 11:00:00 18,7 16,7 18,4 20,4 19,0 13 7 32 17 SSW 1010,9 20 0 0,0
17.08.2019 10:00:00 18,8 16,4 18,1 20,4 19,0 13 7 35 19 SW 1010,8 20 0 0,2
17.08.2019 09:00:00 18,6 16,0 17,2 20,4 19,0 12 7 34 19 SSW 1010,7 20 0 0,0
17.08.2019 08:00:00 18,1 15,0 17,0 20,5 19,0 14 8 32 18 SSW 1010,4 20 0 0,0
17.08.2019 07:00:00 17,8 14,7 16,7 20,5 19,0 12 6 28 15 SSW 1010,5 20 0 0,0
17.08.2019 06:00:00 18,3 14,2 16,8 20,6 19,0 13 7 33 18 SSW 1010,5 20 0 0,0
17.08.2019 05:00:00 18,5 14,0 16,9 20,6 19,0 11 6 27 14 SSW 1010,4 20 0 0,0
17.08.2019 04:00:00 18,6 13,7 16,5 20,7 19,0 9 5 28 15 SW 1010,7 20 0 0,0
17.08.2019 03:00:00 18,9 13,7 17,3 20,8 19,0 11 6 29 16 SW 1011,3 20 0 0,0
17.08.2019 02:00:00 19,0 13,8 16,4 20,8 19,0 9 5 23 13 SW 1011,5 20 0 0,2
17.08.2019 01:00:00 19,6 13,3 17,2 20,9 19,0 9 5 22 12 SW 1011,9 20 0 0,0
17.08.2019 00:00:00 19,9 12,2 17,7 21,0 19,0 5 3 17 9 SW 1012,0 20 0 0,0
16.08.2019 23:00:00 21,0 12,2 18,9 21,1 19,0 7 4 22 12 W 1012,6 20 0 0,0
16.08.2019 22:00:00 21,6 11,6 18,6 21,1 19,0 9 5 21 12 WSW 1012,7 20 0 0,0
16.08.2019 21:00:00 22,5 11,2 20,7 21,1 19,0 12 6 36 19 SW 1012,5 20 0 0,0
16.08.2019 20:00:00 23,1 11,8 21,4 21,1 19,0 11 6 31 17 WSW 1012,7 20 14 0,0
16.08.2019 19:00:00 23,6 11,9 23,2 21,1 19,0 15 8 35 19 SW 1012,7 20 0 0,0
16.08.2019 18:00:00 24,3 12,3 24,3 20,9 19,0 15 8 38 20 SW 1013,5 19 19 0,0
16.08.2019 17:00:00 24,0 12,0 24,6 20,7 19,0 19 10 44 24 SSW 1014,2 20 15 0,0
16.08.2019 16:00:00 25,2 12,8 28,1 20,5 19,0 19 10 42 23 SSW 1014,6 20 54 0,0
16.08.2019 15:00:00 23,9 12,2 25,8 20,3 19,0 15 8 38 21 SW 1015,7 20 31 0,0
16.08.2019 14:00:00 22,9 12,8 24,4 20,1 19,0 13 7 38 20 SSW 1016,7 20 24 0,0
16.08.2019 13:00:00 22,4 12,9 24,3 19,9 19,0 14 7 32 17 SSW 1017,2 20 39 0,0
16.08.2019 12:00:00 21,8 13,2 26,2 19,7 19,0 12 6 29 16 S 1018,1 20 60 0,0
16.08.2019 11:00:00 20,0 13,9 21,6 19,7 19,0 10 6 24 13 SW 1018,9 20 58 0,0
16.08.2019 10:00:00 17,3 12,8 17,3 19,7 19,0 9 5 21 11 SSW 1019,2 20 10 0,0
16.08.2019 09:00:00 15,6 12,9 15,2 19,8 19,0 4 2 16 9 S 1019,2 20 0 0,0
16.08.2019 08:00:00 14,7 12,2 12,7 19,9 19,1 9 5 15 8 SSW 1019,4 20 48 0,0
16.08.2019 07:00:00 14,1 12,0 10,8 20,0 19,0 7 4 14 8 SSW 1019,6 20 0 0,0
16.08.2019 06:00:00 14,4 12,3 11,5 20,1 19,0 6 3 9 5 SSW 1019,6 20 0 0,0
16.08.2019 05:00:00 15,2 12,1 12,4 20,3 19,0 4 2 13 7 W 1020,2 20 0 0,0
16.08.2019 04:00:00 15,8 12,4 12,9 20,4 19,0 5 3 16 8 W 1020,4 20 0 0,0
16.08.2019 03:00:00 16,3 12,5 13,4 20,5 19,0 6 3 13 7 W 1020,3 20 0 0,0
16.08.2019 02:00:00 17,6 13,1 15,2 20,6 19,0 7 4 18 10 WNW 1020,3 20 0 0,0
16.08.2019 01:00:00 18,3 12,9 15,4 20,7 19,0 5 3 18 10 W 1020,1 20 0 0,0
16.08.2019 00:00:00 18,4 12,6 16,0 20,8 19,1 7 4 23 13 NNW 1019,9 20 0 0,0
15.08.2019 23:00:00 19,6 13,1 18,4 20,9 19,0 10 5 30 16 NW 1019,8 20 0 0,0
15.08.2019 22:00:00 20,6 12,0 18,6 20,9 19,0 9 5 27 15 WNW 1019,3 20 0 0,0
15.08.2019 21:00:00 21,2 12,1 19,7 20,9 19,0 14 8 34 19 WNW 1018,5 20 4 0,0
15.08.2019 20:00:00 21,8 12,1 20,6 21,0 19,1 12 7 38 20 WNW 1017,9 20 19 0,0
15.08.2019 19:00:00 22,5 11,9 22,0 20,9 19,1 10 6 42 23 W 1017,5 20 37 0,0
15.08.2019 18:00:00 22,1 12,6 19,1 20,8 19,1 15 8 44 24 WNW 1017,4 20 11 0,0
15.08.2019 17:00:00 22,8 10,9 23,2 20,7 19,1 19 10 46 25 NW 1016,9 20 26 0,0
15.08.2019 16:00:00 23,5 10,9 23,1 20,6 19,1 17 9 41 22 W 1016,2 20 35 0,0
15.08.2019 15:00:00 22,5 11,6 22,8 20,4 19,0 22 12 45 25 W 1016,3 20 33 0,0
15.08.2019 14:00:00 22,2 12,7 21,2 20,3 19,1 19 10 46 25 W 1016,1 20 21 0,0
15.08.2019 13:00:00 20,6 12,8 22,2 20,2 19,1 15 8 46 25 W 1015,9 20 12 0,0
15.08.2019 12:00:00 20,3 13,3 19,9 20,2 19,1 16 9 41 22 W 1015,7 20 32 0,0
15.08.2019 11:00:00 18,8 13,6 19,1 20,2 19,1 15 8 40 22 W 1015,7 20 0 0,0
15.08.2019 10:00:00 18,2 13,5 18,5 20,2 19,1 16 9 39 21 W 1015,3 20 23 0,0
15.08.2019 09:00:00 17,7 13,6 16,9 20,3 19,1 16 9 37 20 W 1014,7 20 17 0,0
15.08.2019 08:00:00 17,1 14,4 16,2 20,4 19,1 10 5 37 20 W 1014,3 20 0 0,0
15.08.2019 07:00:00 17,2 14,5 16,4 20,4 19,1 11 6 28 15 W 1013,8 10 0 0,0
15.08.2019 06:00:00 17,7 14,6 17,0 20,5 19,1 9 5 25 14 W 1013,0 20 0 0,0
15.08.2019 05:00:00 18,0 14,7 17,4 20,6 19,1 13 7 34 18 W 1013,1 20 0 0,0
15.08.2019 04:00:00 18,2 15,3 17,8 20,6 19,1 13 7 32 17 WSW 1013,0 20 0 0,0
15.08.2019 03:00:00 18,2 15,3 17,3 20,7 19,1 13 7 34 19 SW 1013,3 20 0 0,0
15.08.2019 02:00:00 18,1 15,4 16,9 20,8 19,1 11 6 33 18 SW 1013,7 20 0 0,0
15.08.2019 01:00:00 18,3 14,8 17,2 20,8 19,1 14 8 40 21 SW 1014,0 15 0 0,0
15.08.2019 00:00:00 19,8 13,3 18,9 20,9 19,1 21 11 48 26 SW 1013,8 20 0 0,0
14.08.2019 23:00:00 20,1 12,3 18,8 21,0 19,1 13 7 46 25 WSW 1014,0 20 0 0,0
14.08.2019 22:00:00 20,8 12,2 19,9 21,1 19,1 15 8 44 24 SW 1014,3 20 0 0,0
14.08.2019 21:00:00 21,6 11,6 20,5 21,1 19,1 11 6 48 26 WSW 1014,2 20 0 0,0
14.08.2019 20:00:00 23,2 10,9 22,4 21,0 19,1 14 8 42 23 WSW 1013,8 20 0 0,0
14.08.2019 19:00:00 23,6 10,6 23,2 21,0 19,2 16 9 50 27 SW 1013,9 20 12 0,0
14.08.2019 18:00:00 25,0 11,2 25,0 20,8 19,1 16 9 52 28 SW 1014,4 20 33 0,0
14.08.2019 17:00:00 24,3 10,9 24,8 20,6 19,2 18 10 41 22 SSW 1015,2 20 29 0,0
14.08.2019 16:00:00 23,8 11,8 25,2 20,4 19,1 16 8 44 24 SW 1016,0 20 36 0,0
14.08.2019 15:00:00 22,9 11,0 24,0 20,2 19,2 16 9 41 22 SW 1016,8 20 35 0,0
14.08.2019 14:00:00 22,2 12,4 23,5 19,9 19,1 16 8 34 19 SW 1017,5 20 29 0,0
14.08.2019 13:00:00 21,1 12,8 23,4 19,6 19,2 13 7 35 19 SW 1018,1 20 39 0,0

tt = Température de l'air
td = dewpoint
tt 5cm = Température de l'air 5cm
tt -20cm = Température de l'air -20cm
tt -100cm = Température de l'air -100cm
ff = Vitesse du vent
fx = gusts
dd = Direction du vent
ppp = reduced air pressure
vv = visibility
sd = Ensoleillement
rr = Quantités de précipitations

stations d'obs. à proximité